Regional Weather Roundup
Issued by NWS

Home | Current Version | Previous Version | Text Only | Print | Product List | Glossary On
Versions: 1 2 3 4 5 6 7 8 9 10 11 12 13 14 15 16 17 18 19 20 21 22 23 24 25 26 27 28 29 30 31 32 33 34 35 36 37 38 39 40 41 42 43 44 45 46 47 48 49 50
000
ASUS43 KTOP 121308
RWRKS

WEATHER ROUNDUP FOR KANSAS
NATIONAL WEATHER SERVICE GOODLAND KS
700 AM CST FRI FEB 12 2016

NOTE:  "FAIR" INDICATES FEW OR NO CLOUDS BELOW 12,000 FEET WITH NO
SIGNIFICANT WEATHER AND/OR OBSTRUCTIONS TO VISIBILITY.

KSZ001>006-013>018-027>032-041>047-121400-
NORTHWEST KANSAS

CITY           SKY/WX    TMP DP  RH WIND       PRES   REMARKS
GOODLAND       CLOUDY    30  25  81 W7        30.30R
HAYS           CLEAR     28  18  64 N6        30.34S
HILL CITY      CLEAR     29  27  92 NE3       30.35R
RUSSELL        CLEAR     28  26  92 N7        30.34R
$$

KSZ061>065-074>080-084>089-121400-
SOUTHWEST KANSAS

CITY           SKY/WX    TMP DP  RH WIND       PRES   REMARKS
DODGE CITY     CLOUDY    29  26  89 N8        30.32R
ELKHART          N/A     35  22  59 W6          N/A
GARDEN CITY    CLOUDY    26  23  88 N9        30.31R
GREAT BEND     CLEAR     28  19  69 N7        30.35R
LIBERAL        CLOUDY    32  21  64 N8        30.31S
PRATT          CLEAR     28  26  92 N9        30.32R
$$

KSZ066>073-081>083-090>101-121400-
SOUTHEAST KANSAS

CITY           SKY/WX    TMP DP  RH WIND       PRES   REMARKS
CHANUTE        CLEAR     29  23  78 N10       30.28R WCI  20
COFFEYVILLE    CLEAR     28  23  81 N5        30.29R
HUTCHINSON     CLEAR     32  27  81 N12       30.33R WCI  23
MEDICINE LODGE   N/A     35  31  85 N13       30.30R WCI  26
NEWTON         CLOUDY    28  23  80 N18G24    30.33R WCI  16
PARSONS        CLEAR     31  26  82 N9        30.28R
WICHITA INTL   PTCLDY    33  28  81 N14       30.31R WCI  23
WICHITA JABRA  CLOUDY    30  26  85 N13       30.31R WCI  20
WICHITA MCCONL CLEAR     33  28  83 N16       30.30R WCI  22
WINFIELD       CLEAR     28  24  85 N6        30.30R
$$

KSZ007>012-019>026-033>040-048>060-102>105-121400-
NORTHEAST KANSAS

CITY           SKY/WX    TMP DP  RH WIND       PRES   REMARKS
CONCORDIA      CLOUDY    29  24  82 N9        30.35R
EMPORIA        PTCLDY    24  21  88 NW7       30.31R
LAWRENCE       CLOUDY    28  24  85 NW7       30.33R
MANHATTAN      CLOUDY    29  25  85 NW3       30.35R
MARYSVILLE     CLOUDY    30  27  86 N12       30.36R WCI  21
OLATHE IND     CLOUDY    26  21  81 N9        30.31R
OLATHE EXE     CLEAR     28  20  71 N9        30.30R
SALINA         CLEAR     28  23  81 N9        30.36R
TOPEKA BILLARD CLOUDY    30  23  75 N7        30.33R
TOPEKA FORBES  CLOUDY    30  23  75 N13       30.31R WCI  20
$$



USA.gov is the U.S. government's official web portal to all federal, state and local government web resources and services.